Flag for U.S.A. Weather past 2 weeks in Bellingham, Washington, U.S.A.

Now
85 °F

Sunny.


Feels Like: 83 °F
Forecast: 56 / 79 °F
Wind: 3 mph from North

Location: Bellingham International Airport

Current Time: Aug 1, 2015 at 6:00:06 PM

Latest Report: Aug 1, 2015 at 4:53 PM


Visibility: 10 mi

Pressure: 29.94 "Hg

Humidity: 35%

Dew point: 54 °F

Location of BellinghamLocation

Historic Weather in Bellingham — Graph

°F

Bellingham temperature yesterday

Maximum temperature yesterday: 86 °F (at 3:53 PM)
Minimum temperature yesterday: 55 °F (at 5:53 AM)
Average temperature yesterday: 71 °F

Past Weeks' High & Low Weather Summary

 TemperatureHumidityPressure
High88 °F (Jul 19, 5:53 PM)97% (Jul 18, 4:53 AM)30.30 "Hg (Jul 18, 4:53 AM)
Low54 °F (Jul 27, 1:53 AM)25% (Jul 29, 5:53 PM)29.88 "Hg (Jul 22, 8:53 PM)
Average67 °F67%30.05 "Hg
* Reported Jul 17 3:53 PM — Aug 1 3:53 PM, Bellingham, Weather by CustomWeather, © 2015

Note: Actual official high and low records may vary slightly from our data, if they occured in-between our weather recording intervals... More about our weather records

Advertising

Bellingham weather history for previous 24 hours

 ConditionsComfort  
Time TempWeatherWind HumidityBarometerVisibility
3:53 PM
Sat, Aug 1
83 °FSunny.No wind37%29.96 "Hg10 mi
2:53 PM81 °FSunny.7 mph47%29.98 "Hg10 mi
1:53 PM80 °FSunny.6 mph51%30.00 "Hg10 mi
12:53 PM77 °FSunny.6 mph56%30.00 "Hg10 mi
11:53 AM74 °FSunny.No wind60%30.02 "Hg10 mi
10:53 AM73 °FSunny.3 mph64%30.02 "Hg10 mi
9:53 AM71 °FSunny.6 mph68%30.03 "Hg10 mi
8:53 AM68 °FSunny.3 mph76%30.04 "Hg10 mi
7:53 AM67 °FSunny.6 mph76%30.03 "Hg10 mi
6:53 AM64 °FSunny.5 mph81%30.03 "Hg10 mi
5:53 AM60 °FClear.5 mph86%30.02 "Hg10 mi
4:53 AM58 °FClear.3 mph93%30.01 "Hg10 mi
3:53 AM57 °FClear.No wind90%30.01 "Hg10 mi
2:53 AM59 °FClear.No wind90%30.01 "Hg10 mi
1:53 AM60 °FClear.No wind86%30.01 "Hg10 mi
12:53 AM61 °FClear.3 mph87%30.01 "Hg10 mi
11:53 PM
Fri, Jul 31
64 °FClear.7 mph81%30.01 "Hg10 mi
10:53 PM62 °FClear.No wind78%30.00 "Hg10 mi
9:53 PM63 °FClear.No wind84%29.99 "Hg10 mi
8:53 PM67 °FSunny.No wind79%29.99 "Hg10 mi
7:53 PM77 °FSunny.3 mph50%29.98 "Hg10 mi
6:53 PM83 °FSunny.3 mph31%29.99 "Hg10 mi
Weather by CustomWeather, © 2015

See weather overviewHow to use our weather pages